Regional Weather Roundup
Issued by NWS

Home | Current Version | Previous Version | Text Only | Print | Product List | Glossary Off
Versions: 1 2 3 4 5 6 7 8 9 10 11 12 13 14 15 16 17 18 19 20 21 22 23 24 25 26 27 28 29 30 31 32 33 34 35 36 37 38 39 40 41 42 43 44 45 46 47 48 49 50

000
ASUS43 KDTX 192110
RWRMI
MICHIGAN HOURLY REGIONAL WEATHER ROUNDUP
NATIONAL WEATHER SERVICE DETROIT/PONTIAC MI
500 PM EDT FRI SEP 19 2014

NOTE: "FAIR" INDICATES FEW OR NO CLOUDS BELOW 12,000 FEET WITH NO
SIGNIFICANT WEATHER AND/OR OBSTRUCTION TO VISIBILITY.

MIZ047>049-052>055-059>063-066>070-074>076-081>083-192200-
SOUTHEAST LOWER MICHIGAN

CITY           SKY/WX    TMP DP  RH WIND       PRES   REMARKS
ADRIAN         SUNNY     69  47  45 S7        30.13F
ALMA           SUNNY     68  49  50 S5        30.09F
ANN ARBOR      SUNNY     67  45  45 MISG      30.13F
BAD AXE        MOSUNNY   65  47  51 S13       30.13F
DETROIT CITY   SUNNY     66  44  45 S9        30.15F
DETROIT        PTSUNNY   64  39  39 SE7       30.15F
FLINT          MOSUNNY   68  42  38 S6        30.13F
GROSSE ILE     SUNNY     63  52  67 SE7       30.14F
HILLSDALE      SUNNY     70  46  42 S8        30.12F
HOWELL         MOSUNNY   65  46  50 S7        30.12F

CITY           SKY/WX    TMP DP  RH WIND       PRES   REMARKS
JACKSON        SUNNY     68  48  48 S10       30.12F
LAMBERTVILLE   MOSUNNY   66  50  55 E6        30.15S
LANSING        SUNNY     68  49  50 S12       30.11F
LAPEER         NOT AVBL
MASON          MOSUNNY   68  49  51 SE7       30.11F
MONROE         MOSUNNY   64  46  52 E6        30.14S
MT. CLEMENS    PTSUNNY   63  51  64 S7        30.14F
PONTIAC        MOSUNNY   66  43  43 SE9       30.13F
PORT HOPE        N/A     65  49  56 S8        30.11F
PORT HURON     SUNNY     64  50  59 S10G16    30.15F
TRI CITIES     SUNNY     68  48  48 S9        30.11F
YPSILANTI      SUNNY     69  48  47 SE8       30.15F
$$
MIZ043>046-050>051-056>058-064>065-071>073-077>080-192200-
SOUTHWEST LOWER MICHIGAN

CITY           SKY/WX    TMP DP  RH WIND       PRES   REMARKS
BATTLE CREEK   SUNNY     69  49  48 S12       30.10F
BENTON HARBOR  SUNNY     71  50  47 S9        30.06F
BIG RAPIDS     MOSUNNY   68  55  64 S13G20    30.05F
COLDWATER      SUNNY     70  49  48 SE9       30.11F
HOLLAND        MOSUNNY   72  54  53 S14       30.07F
GRAND RAPIDS   PTSUNNY   70  53  54 S13       30.09F
KALAMAZOO      SUNNY     70  49  47 S10G20    30.10F
MARSHALL       MOSUNNY   68  48  48 SE6       30.10F
MUSKEGON       PTSUNNY   70  52  52 S12       30.05F
$$
MIZ016>042-192200-
NORTHERN LOWER MICHIGAN

CITY           SKY/WX    TMP DP  RH WIND       PRES   REMARKS
ALPENA         MOSUNNY   64  49  57 S17       30.05F
BEAVER ISLAND  PTSUNNY   67  53  61 S12G18    29.93F
BELLAIRE       PTSUNNY   69  51  54 S13G18    29.99F
CADILLAC       MOSUNNY   65  53  66 S14G20    30.03F
CHARLEVOIX     PTSUNNY   70  53  54 S15G22    29.99F
FRANKFORT      MOCLDY    69  50  49 S13G25    29.97F
GAYLORD        MOSUNNY   64  48  56 S18G28    30.02F
GRAYLING       MOSUNNY   64  50  59 S10G18    30.04F
HARBOR SPRINGS PTSUNNY   69  50  51 S13G21    29.97F
HOUGHTON LAKE  SUNNY     63  50  62 S12       30.06F
MANISTEE       PTSUNNY   70  48  46 S15G21    29.99F
OSCODA         SUNNY     64  46  51 S12       30.09F
PELLSTON       PTSUNNY   69  50  50 S14G22    29.97
TRAVERSE CITY  PTSUNNY   70  49  47 SW14G25   29.97F
$$
MIZ007>008-015-192200-
EASTERN UPPER MICHIGAN

CITY           SKY/WX    TMP DP  RH WIND       PRES   REMARKS
KINROSS        CLOUDY    63  54  72 SE16G24   29.94F
MACKINAC ISLAN PTSUNNY   66  51  57 S13G21    29.95F
NEWBERRY       PTSUNNY   62  53  71 S21G31    29.88F
S. S. MARIE    CLOUDY    59  50  72 SE10G23   29.93F
$$
MIZ004>006-011>014-085-192200-
CENTRAL UPPER MICHIGAN

CITY           SKY/WX    TMP DP  RH WIND       PRES   REMARKS
MANISTIQUE     PTSUNNY   61  55  81 S18G26    29.88F
ESCANABA       CLOUDY    61  55  82 S17G26    29.86F
MENOMINEE      PTSUNNY   64  55  72 S17G31    29.83F
SAWYER-GWINN   MOSUNNY   66  52  59 S20G29    29.80F
$$
MIZ001>003-009>011-084-192200-
WESTERN UPPER MICHIGAN

CITY           SKY/WX    TMP DP  RH WIND       PRES   REMARKS
IRON MOUNTAIN  PTSUNNY   68  51  54 S18G28    29.82R
HOUGHTON       LGT RAIN  63  53  70 SW10      29.68F
COPPER HARBOR    N/A     62  53  72 SW7       29.68F
IRONWOOD       PTSUNNY   66  55  68 SW14G23   29.69S
$$

ABBREVIATIONS USED IN REMARKS
   TC - TEMPERATURE IN CELSIUS
  WCI - WIND CHILL INDEX
   HX - HEAT INDEX
  VSB - VISIBILITY



USA.gov is the U.S. government's official web portal to all federal, state and local government web resources and services.